Time,TemperatureF,DewpointF,PressureIn,WindDirection,WindDirectionDegrees,WindSpeedMPH,WindSpeedGustMPH,Humidity,HourlyPrecipIn,Conditions,Clouds,dailyrainin,SoftwareType,DateUTC
2013-06-02 00:00:00,53.4,34.2,30.78,SW,225,4.0,6.0,48,0.00,,,0.00,meteohub,2013-06-02 06:00:00,
2013-06-02 00:05:00,53.4,34.2,30.78,SW,225,4.0,4.0,48,0.00,,,0.00,meteohub,2013-06-02 06:05:00,
2013-06-02 00:11:00,53.2,34.0,30.78,West,270,2.0,4.0,48,0.00,,,0.00,meteohub,2013-06-02 06:11:00,
2013-06-02 00:16:00,52.5,32.9,30.78,East,90,6.0,6.0,47,0.00,,,0.00,meteohub,2013-06-02 06:16:00,
2013-06-02 00:21:00,52.0,33.4,30.79,SE,135,2.0,6.0,49,0.00,,,0.00,meteohub,2013-06-02 06:21:00,
2013-06-02 00:26:00,51.3,33.8,30.79,SW,225,2.0,6.0,51,0.00,,,0.00,meteohub,2013-06-02 06:26:00,
2013-06-02 00:31:00,50.9,33.4,30.78,West,270,3.0,6.0,51,0.00,,,0.00,meteohub,2013-06-02 06:31:00,
2013-06-02 00:36:00,50.7,33.3,30.78,SW,225,0.0,4.0,51,0.00,,,0.00,meteohub,2013-06-02 06:36:00,
2013-06-02 00:41:00,49.8,33.8,30.78,SW,225,2.0,4.0,54,0.00,,,0.00,meteohub,2013-06-02 06:41:00,
2013-06-02 00:46:00,48.2,32.4,30.79,South,180,0.0,3.0,54,0.00,,,0.00,meteohub,2013-06-02 06:46:00,
2013-06-02 00:51:00,46.9,32.0,30.79,South,180,0.0,2.0,56,0.00,,,0.00,meteohub,2013-06-02 06:51:00,
2013-06-02 00:56:00,45.9,31.1,30.78,SW,225,0.0,2.0,56,0.00,,,0.00,meteohub,2013-06-02 06:56:00,
2013-06-02 01:02:00,45.1,30.7,30.79,SW,225,0.0,1.0,57,0.00,,,0.00,meteohub,2013-06-02 07:02:00,
2013-06-02 01:07:00,44.4,30.9,30.78,SW,225,0.0,1.0,59,0.00,,,0.00,meteohub,2013-06-02 07:07:00,
2013-06-02 01:12:00,43.9,30.9,30.79,SW,225,1.0,1.0,60,0.00,,,0.00,meteohub,2013-06-02 07:12:00,
2013-06-02 01:17:00,43.5,30.6,30.79,SW,225,0.0,1.0,60,0.00,,,0.00,meteohub,2013-06-02 07:17:00,
2013-06-02 01:22:00,43.2,30.2,30.79,SW,225,0.0,1.0,60,0.00,,,0.00,meteohub,2013-06-02 07:22:00,
2013-06-02 01:27:00,42.6,30.9,30.79,SW,225,0.0,2.0,63,0.00,,,0.00,meteohub,2013-06-02 07:27:00,
2013-06-02 01:32:00,42.3,30.6,30.79,SW,225,2.0,2.0,63,0.00,,,0.00,meteohub,2013-06-02 07:32:00,
2013-06-02 01:37:00,41.9,30.2,30.79,North,0,1.0,2.0,63,0.00,,,0.00,meteohub,2013-06-02 07:37:00,
2013-06-02 01:42:00,41.9,30.6,30.79,North,0,0.0,2.0,64,0.00,,,0.00,meteohub,2013-06-02 07:42:00,
2013-06-02 01:47:00,41.4,30.6,30.79,SW,225,0.0,2.0,65,0.00,,,0.00,meteohub,2013-06-02 07:47:00,
2013-06-02 01:52:00,41.0,30.2,30.79,SW,225,0.0,2.0,65,0.00,,,0.00,meteohub,2013-06-02 07:52:00,
2013-06-02 01:57:00,40.6,30.2,30.78,West,270,2.0,2.0,66,0.00,,,0.00,meteohub,2013-06-02 07:57:00,
2013-06-02 02:02:00,40.6,30.6,30.78,West,270,1.0,2.0,67,0.00,,,0.00,meteohub,2013-06-02 08:02:00,
2013-06-02 02:07:00,40.6,30.6,30.78,West,270,1.0,2.0,67,0.00,,,0.00,meteohub,2013-06-02 08:07:00,
2013-06-02 02:12:00,40.1,30.4,30.78,West,270,2.0,2.0,68,0.00,,,0.00,meteohub,2013-06-02 08:12:00,
2013-06-02 02:17:00,40.1,30.4,30.78,West,270,0.0,2.0,68,0.00,,,0.00,meteohub,2013-06-02 08:17:00,
2013-06-02 02:22:00,39.9,30.6,30.78,West,270,0.0,2.0,69,0.00,,,0.00,meteohub,2013-06-02 08:22:00,
2013-06-02 02:27:00,39.6,30.2,30.78,West,270,2.0,2.0,69,0.00,,,0.00,meteohub,2013-06-02 08:27:00,
2013-06-02 02:32:00,39.6,29.8,30.79,West,270,0.0,2.0,68,0.00,,,0.00,meteohub,2013-06-02 08:32:00,
2013-06-02 02:37:00,39.4,29.7,30.79,SW,225,1.0,2.0,68,0.00,,,0.00,meteohub,2013-06-02 08:37:00,
2013-06-02 02:42:00,39.2,29.5,30.78,SW,225,0.0,2.0,68,0.00,,,0.00,meteohub,2013-06-02 08:42:00,
2013-06-02 02:47:00,39.0,30.0,30.78,SW,225,0.0,1.0,70,0.00,,,0.00,meteohub,2013-06-02 08:47:00,
2013-06-02 02:52:00,38.8,29.8,30.78,SW,225,0.0,1.0,70,0.00,,,0.00,meteohub,2013-06-02 08:52:00,
2013-06-02 02:57:00,38.5,29.8,30.78,SW,225,0.0,1.0,71,0.00,,,0.00,meteohub,2013-06-02 08:57:00,
2013-06-02 03:02:00,38.1,29.5,30.78,SW,225,2.0,2.0,71,0.00,,,0.00,meteohub,2013-06-02 09:02:00,
2013-06-02 03:07:00,37.8,29.1,30.78,SW,225,0.0,2.0,71,0.00,,,0.00,meteohub,2013-06-02 09:07:00,
2013-06-02 03:12:00,37.6,29.1,30.78,SW,225,0.0,2.0,71,0.00,,,0.00,meteohub,2013-06-02 09:12:00,
2013-06-02 03:17:00,37.4,29.1,30.78,SW,225,0.0,2.0,72,0.00,,,0.00,meteohub,2013-06-02 09:17:00,
2013-06-02 03:22:00,37.2,28.0,30.78,SW,225,0.0,2.0,69,0.00,,,0.00,meteohub,2013-06-02 09:22:00,
2013-06-02 03:27:00,37.0,27.9,30.78,SW,225,0.0,2.0,69,0.00,,,0.00,meteohub,2013-06-02 09:27:00,
2013-06-02 03:32:00,36.9,28.0,30.77,SW,225,1.0,2.0,70,0.00,,,0.00,meteohub,2013-06-02 09:32:00,
2013-06-02 03:37:00,36.7,27.9,30.77,SW,225,0.0,2.0,70,0.00,,,0.00,meteohub,2013-06-02 09:37:00,
2013-06-02 03:42:00,36.5,28.0,30.78,SW,225,0.0,1.0,71,0.00,,,0.00,meteohub,2013-06-02 09:42:00,
2013-06-02 03:47:00,36.5,28.0,30.77,SW,225,2.0,2.0,71,0.00,,,0.00,meteohub,2013-06-02 09:47:00,
2013-06-02 03:52:00,36.9,28.4,30.77,South,180,0.0,2.0,71,0.00,,,0.00,meteohub,2013-06-02 09:52:00,
2013-06-02 03:57:00,36.9,28.4,30.77,SW,225,0.0,2.0,71,0.00,,,0.00,meteohub,2013-06-02 09:57:00,
2013-06-02 04:02:00,36.9,28.4,30.77,SW,225,0.0,2.0,71,0.00,,,0.00,meteohub,2013-06-02 10:02:00,
2013-06-02 04:07:00,36.9,28.4,30.77,SW,225,0.0,2.0,71,0.00,,,0.00,meteohub,2013-06-02 10:07:00,
2013-06-02 04:12:00,36.7,28.2,30.77,SW,225,0.0,1.0,71,0.00,,,0.00,meteohub,2013-06-02 10:12:00,
2013-06-02 04:17:00,36.3,27.9,30.77,SW,225,0.0,1.0,71,0.00,,,0.00,meteohub,2013-06-02 10:17:00,
2013-06-02 04:22:00,36.0,27.5,30.77,SW,225,0.0,1.0,71,0.00,,,0.00,meteohub,2013-06-02 10:22:00,
2013-06-02 04:27:00,35.8,27.3,30.77,SW,225,0.0,1.0,71,0.00,,,0.00,meteohub,2013-06-02 10:27:00,
2013-06-02 04:32:00,35.8,27.7,30.77,SW,225,1.0,0.0,72,0.00,,,0.00,meteohub,2013-06-02 10:32:00,
2013-06-02 04:37:00,35.6,27.5,30.77,SW,225,0.0,2.0,72,0.00,,,0.00,meteohub,2013-06-02 10:37:00,
2013-06-02 04:42:00,35.4,27.7,30.77,SW,225,1.0,2.0,73,0.00,,,0.00,meteohub,2013-06-02 10:42:00,
2013-06-02 04:47:00,35.1,27.3,30.77,SW,225,0.0,2.0,73,0.00,,,0.00,meteohub,2013-06-02 10:47:00,
2013-06-02 04:52:00,34.9,27.5,30.77,SW,225,0.0,2.0,74,0.00,,,0.00,meteohub,2013-06-02 10:52:00,
2013-06-02 04:57:00,34.5,27.1,30.77,SW,225,0.0,2.0,74,0.00,,,0.00,meteohub,2013-06-02 10:57:00,
2013-06-02 05:02:00,34.2,26.8,30.77,SW,225,0.0,2.0,74,0.00,,,0.00,meteohub,2013-06-02 11:02:00,
2013-06-02 05:07:00,33.8,26.4,30.77,SW,225,0.0,0.0,74,0.00,,,0.00,meteohub,2013-06-02 11:07:00,
2013-06-02 05:12:00,33.8,26.8,30.77,SW,225,0.0,0.0,75,0.00,,,0.00,meteohub,2013-06-02 11:12:00,
2013-06-02 05:17:00,33.6,26.8,30.77,SW,225,0.0,0.0,76,0.00,,,0.00,meteohub,2013-06-02 11:17:00,
2013-06-02 05:22:00,33.4,26.8,30.77,SW,225,2.0,2.0,76,0.00,,,0.00,meteohub,2013-06-02 11:22:00,
2013-06-02 05:27:00,33.4,26.8,30.77,SW,225,0.0,2.0,76,0.00,,,0.00,meteohub,2013-06-02 11:27:00,
2013-06-02 05:32:00,33.3,26.6,30.77,SW,225,0.0,2.0,76,0.00,,,0.00,meteohub,2013-06-02 11:32:00,
2013-06-02 05:37:00,33.1,26.6,30.77,SW,225,0.0,2.0,77,0.00,,,0.00,meteohub,2013-06-02 11:37:00,
2013-06-02 05:42:00,33.1,26.6,30.77,SW,225,0.0,1.0,77,0.00,,,0.00,meteohub,2013-06-02 11:42:00,
2013-06-02 05:47:00,32.9,26.4,30.77,SW,225,0.0,1.0,77,0.00,,,0.00,meteohub,2013-06-02 11:47:00,
2013-06-02 05:52:00,32.9,26.4,30.77,SW,225,0.0,2.0,77,0.00,,,0.00,meteohub,2013-06-02 11:52:00,
2013-06-02 05:57:00,32.9,26.4,30.77,SW,225,0.0,2.0,77,0.00,,,0.00,meteohub,2013-06-02 11:57:00,
2013-06-02 06:03:00,32.9,26.4,30.77,SW,225,0.0,2.0,77,0.00,,,0.00,meteohub,2013-06-02 12:03:00,
2013-06-02 06:08:00,32.9,26.8,30.77,SW,225,0.0,0.0,78,0.00,,,0.00,meteohub,2013-06-02 12:08:00,
2013-06-02 06:13:00,32.7,26.6,30.77,SW,225,1.0,0.0,78,0.00,,,0.00,meteohub,2013-06-02 12:13:00,
2013-06-02 06:18:00,32.9,26.8,30.77,SW,225,0.0,1.0,78,0.00,,,0.00,meteohub,2013-06-02 12:18:00,
2013-06-02 06:23:00,33.1,27.3,30.77,SW,225,0.0,1.0,79,0.00,,,0.00,meteohub,2013-06-02 12:23:00,
2013-06-02 06:28:00,33.1,27.3,30.77,SW,225,0.0,1.0,79,0.00,,,0.00,meteohub,2013-06-02 12:28:00,
2013-06-02 06:33:00,33.1,27.3,30.77,SW,225,0.0,0.0,79,0.00,,,0.00,meteohub,2013-06-02 12:33:00,
2013-06-02 06:38:00,33.3,27.7,30.77,SW,225,0.0,0.0,80,0.00,,,0.00,meteohub,2013-06-02 12:38:00,
2013-06-02 06:43:00,33.3,27.7,30.77,SW,225,0.0,0.0,80,0.00,,,0.00,meteohub,2013-06-02 12:43:00,
2013-06-02 06:49:00,33.4,27.9,30.76,SW,225,0.0,0.0,80,0.00,,,0.00,meteohub,2013-06-02 12:49:00,
2013-06-02 06:54:00,33.4,27.9,30.77,SW,225,0.0,0.0,80,0.00,,,0.00,meteohub,2013-06-02 12:54:00,
2013-06-02 06:59:00,33.6,28.0,30.76,SW,225,0.0,0.0,80,0.00,,,0.00,meteohub,2013-06-02 12:59:00,
2013-06-02 07:04:00,33.8,27.7,30.76,SW,225,0.0,0.0,78,0.00,,,0.00,meteohub,2013-06-02 13:04:00,
2013-06-02 07:09:00,34.0,27.9,30.76,SW,225,2.0,0.0,78,0.00,,,0.00,meteohub,2013-06-02 13:09:00,
2013-06-02 07:14:00,34.5,28.4,30.76,SW,225,1.0,0.0,78,0.00,,,0.00,meteohub,2013-06-02 13:14:00,
2013-06-02 07:19:00,34.9,28.8,30.76,SW,225,0.0,2.0,78,0.00,,,0.00,meteohub,2013-06-02 13:19:00,
2013-06-02 07:24:00,35.2,29.1,30.76,SW,225,0.0,2.0,78,0.00,,,0.00,meteohub,2013-06-02 13:24:00,
2013-06-02 07:29:00,35.4,29.3,30.75,SW,225,0.0,2.0,78,0.00,,,0.00,meteohub,2013-06-02 13:29:00,
2013-06-02 07:35:00,36.7,30.6,30.75,SW,225,2.0,2.0,78,0.00,,,0.00,meteohub,2013-06-02 13:35:00,
2013-06-02 07:40:00,39.6,34.2,30.75,SW,225,0.0,0.0,81,0.00,,,0.00,meteohub,2013-06-02 13:40:00,
2013-06-02 07:45:00,42.4,36.1,30.75,SE,135,2.0,2.0,78,0.00,,,0.00,meteohub,2013-06-02 13:45:00,
2013-06-02 07:50:00,46.0,36.9,30.75,East,90,4.0,4.0,70,0.00,,,0.00,meteohub,2013-06-02 13:50:00,
2013-06-02 07:55:00,48.6,36.5,30.74,East,90,4.0,4.0,63,0.00,,,0.00,meteohub,2013-06-02 13:55:00,
2013-06-02 08:00:00,50.2,35.1,30.75,West,270,2.0,7.0,56,0.00,,,0.00,meteohub,2013-06-02 14:00:00,
2013-06-02 08:05:00,50.2,35.1,30.74,West,270,2.0,7.0,56,0.00,,,0.00,meteohub,2013-06-02 14:05:00,
2013-06-02 08:10:00,53.2,37.0,30.74,NE,45,3.0,7.0,54,0.00,,,0.00,meteohub,2013-06-02 14:10:00,
2013-06-02 08:15:00,53.8,36.1,30.74,East,90,4.0,4.0,51,0.00,,,0.00,meteohub,2013-06-02 14:15:00,
2013-06-02 08:20:00,54.0,36.3,30.74,ENE,68,5.0,5.0,51,0.00,,,0.00,meteohub,2013-06-02 14:20:00,
2013-06-02 08:25:00,54.0,34.7,30.74,SE,135,2.0,5.0,48,0.00,,,0.00,meteohub,2013-06-02 14:25:00,
2013-06-02 08:30:00,54.7,36.9,30.73,West,270,2.0,5.0,51,0.00,,,0.00,meteohub,2013-06-02 14:30:00,
2013-06-02 08:36:00,55.9,36.5,30.73,SW,225,2.0,5.0,48,0.00,,,0.00,meteohub,2013-06-02 14:36:00,
2013-06-02 08:41:00,57.0,37.6,30.72,South,180,2.0,4.0,48,0.00,,,0.00,meteohub,2013-06-02 14:41:00,
2013-06-02 08:46:00,58.1,36.9,30.72,East,90,2.0,3.0,45,0.00,,,0.00,meteohub,2013-06-02 14:46:00,
2013-06-02 08:51:00,58.6,37.4,30.72,South,180,1.0,3.0,45,0.00,,,0.00,meteohub,2013-06-02 14:51:00,
2013-06-02 08:56:00,59.0,36.5,30.71,South,180,2.0,3.0,43,0.00,,,0.00,meteohub,2013-06-02 14:56:00,
2013-06-02 09:01:00,59.5,37.6,30.71,SE,135,3.0,3.0,44,0.00,,,0.00,meteohub,2013-06-02 15:01:00,
2013-06-02 09:06:00,60.3,37.8,30.71,SW,225,1.0,3.0,43,0.00,,,0.00,meteohub,2013-06-02 15:06:00,
2013-06-02 09:11:00,60.3,35.8,30.71,NE,45,2.0,4.0,40,0.00,,,0.00,meteohub,2013-06-02 15:11:00,
2013-06-02 09:17:00,60.1,37.6,30.71,SE,135,3.0,5.0,43,0.00,,,0.00,meteohub,2013-06-02 15:17:00,
2013-06-02 09:22:00,60.3,37.0,30.71,SSW,203,2.0,5.0,42,0.00,,,0.00,meteohub,2013-06-02 15:22:00,
2013-06-02 09:27:00,60.8,36.3,30.71,NW,315,1.0,4.0,40,0.00,,,0.00,meteohub,2013-06-02 15:27:00,
2013-06-02 09:32:00,61.0,35.8,30.70,NE,45,3.0,4.0,39,0.00,,,0.00,meteohub,2013-06-02 15:32:00,
2013-06-02 09:37:00,61.7,36.5,30.70,South,180,2.0,3.0,39,0.00,,,0.00,meteohub,2013-06-02 15:37:00,
2013-06-02 09:42:00,62.6,36.7,30.69,SW,225,2.0,3.0,38,0.00,,,0.00,meteohub,2013-06-02 15:42:00,
2013-06-02 09:47:00,63.3,35.2,30.69,SE,135,4.0,4.0,35,0.00,,,0.00,meteohub,2013-06-02 15:47:00,
2013-06-02 09:52:00,63.5,35.4,30.69,NE,45,4.0,4.0,35,0.00,,,0.00,meteohub,2013-06-02 15:52:00,
2013-06-02 09:57:00,63.7,35.6,30.69,North,0,6.0,6.0,35,0.00,,,0.00,meteohub,2013-06-02 15:57:00,
2013-06-02 10:02:00,63.5,36.1,30.68,NE,45,4.0,7.0,36,0.00,,,0.00,meteohub,2013-06-02 16:02:00,
2013-06-02 10:07:00,63.5,36.1,30.68,NE,45,4.0,7.0,36,0.00,,,0.00,meteohub,2013-06-02 16:07:00,
2013-06-02 10:12:00,64.2,36.0,30.67,NE,45,4.0,7.0,35,0.00,,,0.00,meteohub,2013-06-02 16:12:00,
2013-06-02 10:17:00,64.4,36.9,30.68,East,90,5.0,7.0,36,0.00,,,0.00,meteohub,2013-06-02 16:17:00,
2013-06-02 10:22:00,64.9,37.4,30.67,SE,135,3.0,7.0,36,0.00,,,0.00,meteohub,2013-06-02 16:22:00,
2013-06-02 10:27:00,66.6,37.4,30.67,North,0,2.0,7.0,34,0.00,,,0.00,meteohub,2013-06-02 16:27:00,
2013-06-02 10:32:00,66.9,36.9,30.66,East,90,6.0,7.0,33,0.00,,,0.00,meteohub,2013-06-02 16:32:00,
2013-06-02 10:37:00,67.6,38.3,30.66,SE,135,3.0,8.0,34,0.00,,,0.00,meteohub,2013-06-02 16:37:00,
2013-06-02 10:42:00,69.1,37.2,30.66,North,0,4.0,8.0,31,0.00,,,0.00,meteohub,2013-06-02 16:42:00,
2013-06-02 10:47:00,70.0,32.5,30.66,North,0,3.0,8.0,25,0.00,,,0.00,meteohub,2013-06-02 16:47:00,
2013-06-02 10:52:00,70.5,33.1,30.66,NE,45,4.0,5.0,25,0.00,,,0.00,meteohub,2013-06-02 16:52:00,
2013-06-02 10:57:00,71.1,33.4,30.66,North,0,3.0,6.0,25,0.00,,,0.00,meteohub,2013-06-02 16:57:00,
2013-06-02 11:02:00,72.7,31.6,30.65,East,90,4.0,6.0,22,0.00,,,0.00,meteohub,2013-06-02 17:02:00,
2013-06-02 11:07:00,73.9,34.9,30.65,East,90,2.0,6.0,24,0.00,,,0.00,meteohub,2013-06-02 17:07:00,
2013-06-02 11:12:00,75.0,28.6,30.65,WNW,293,3.0,8.0,18,0.00,,,0.00,meteohub,2013-06-02 17:12:00,
2013-06-02 11:17:00,76.5,28.4,30.65,North,0,6.0,8.0,17,0.00,,,0.00,meteohub,2013-06-02 17:17:00,
2013-06-02 11:22:00,77.2,27.5,30.65,SE,135,4.0,11.0,16,0.00,,,0.00,meteohub,2013-06-02 17:22:00,
2013-06-02 11:27:00,78.3,29.8,30.65,SE,135,8.0,11.0,17,0.00,,,0.00,meteohub,2013-06-02 17:27:00,
2013-06-02 11:32:00,78.6,27.1,30.64,South,180,4.0,8.0,15,0.00,,,0.00,meteohub,2013-06-02 17:32:00,
2013-06-02 11:37:00,79.0,27.3,30.64,East,90,8.0,9.0,15,0.00,,,0.00,meteohub,2013-06-02 17:37:00,
2013-06-02 11:42:00,79.5,27.9,30.64,East,90,5.0,9.0,15,0.00,,,0.00,meteohub,2013-06-02 17:42:00,
2013-06-02 11:47:00,79.9,29.7,30.64,West,270,6.0,12.0,16,0.00,,,0.00,meteohub,2013-06-02 17:47:00,
2013-06-02 11:52:00,79.9,28.0,30.64,SE,135,8.0,12.0,15,0.00,,,0.00,meteohub,2013-06-02 17:52:00,
2013-06-02 11:57:00,80.1,28.2,30.64,South,180,7.0,12.0,15,0.00,,,0.00,meteohub,2013-06-02 17:57:00,
2013-06-02 12:02:00,80.1,26.6,30.64,East,90,4.0,9.0,14,0.00,,,0.00,meteohub,2013-06-02 18:02:00,
2013-06-02 12:07:00,80.1,26.6,30.63,East,90,4.0,9.0,14,0.00,,,0.00,meteohub,2013-06-02 18:07:00,
2013-06-02 12:12:00,79.7,28.0,30.63,North,0,4.0,8.0,15,0.00,,,0.00,meteohub,2013-06-02 18:12:00,
2013-06-02 12:17:00,80.1,28.2,30.63,East,90,3.0,7.0,15,0.00,,,0.00,meteohub,2013-06-02 18:17:00,
2013-06-02 12:22:00,80.2,28.4,30.62,SW,225,5.0,7.0,15,0.00,,,0.00,meteohub,2013-06-02 18:22:00,
2013-06-02 12:27:00,80.2,28.4,30.62,South,180,3.0,11.0,15,0.00,,,0.00,meteohub,2013-06-02 18:27:00,
2013-06-02 12:32:00,80.6,27.0,30.62,SW,225,4.0,11.0,14,0.00,,,0.00,meteohub,2013-06-02 18:32:00,
2013-06-02 12:37:00,81.0,27.3,30.62,ENE,68,8.0,11.0,14,0.00,,,0.00,meteohub,2013-06-02 18:37:00,
2013-06-02 12:42:00,81.3,27.5,30.61,East,90,4.0,8.0,14,0.00,,,0.00,meteohub,2013-06-02 18:42:00,
2013-06-02 12:47:00,81.5,27.7,30.61,South,180,2.0,8.0,14,0.00,,,0.00,meteohub,2013-06-02 18:47:00,
2013-06-02 12:52:00,81.7,26.1,30.61,SW,225,5.0,9.0,13,0.00,,,0.00,meteohub,2013-06-02 18:52:00,
2013-06-02 12:57:00,81.3,27.5,30.61,SE,135,4.0,9.0,14,0.00,,,0.00,meteohub,2013-06-02 18:57:00,
2013-06-02 13:02:00,81.7,27.9,30.61,SE,135,2.0,7.0,14,0.00,,,0.00,meteohub,2013-06-02 19:02:00,
2013-06-02 13:07:00,81.3,25.7,30.61,SW,225,2.0,7.0,13,0.00,,,0.00,meteohub,2013-06-02 19:07:00,
2013-06-02 13:12:00,81.5,25.9,30.61,South,180,5.0,8.0,13,0.00,,,0.00,meteohub,2013-06-02 19:12:00,
2013-06-02 13:17:00,82.2,26.4,30.61,NE,45,4.0,8.0,13,0.00,,,0.00,meteohub,2013-06-02 19:17:00,
2013-06-02 13:22:00,82.2,26.4,30.60,SW,225,9.0,9.0,13,0.00,,,0.00,meteohub,2013-06-02 19:22:00,
2013-06-02 13:27:00,81.9,26.2,30.60,NE,45,4.0,9.0,13,0.00,,,0.00,meteohub,2013-06-02 19:27:00,
2013-06-02 13:32:00,81.9,28.0,30.60,North,0,4.0,12.0,14,0.00,,,0.00,meteohub,2013-06-02 19:32:00,
2013-06-02 13:38:00,82.9,32.2,30.60,NE,45,4.0,12.0,16,0.00,,,0.00,meteohub,2013-06-02 19:38:00,
2013-06-02 13:43:00,83.1,32.4,30.59,North,0,6.0,12.0,16,0.00,,,0.00,meteohub,2013-06-02 19:43:00,
2013-06-02 13:48:00,82.2,26.4,30.59,NE,45,4.0,7.0,13,0.00,,,0.00,meteohub,2013-06-02 19:48:00,
2013-06-02 13:53:00,82.2,26.4,30.59,WSW,248,4.0,10.0,13,0.00,,,0.00,meteohub,2013-06-02 19:53:00,
2013-06-02 13:58:00,82.9,32.2,30.59,South,180,3.0,10.0,16,0.00,,,0.00,meteohub,2013-06-02 19:58:00,
2013-06-02 14:03:00,83.1,32.4,30.59,East,90,6.0,7.0,16,0.00,,,0.00,meteohub,2013-06-02 20:03:00,
2013-06-02 14:08:00,82.6,31.8,30.59,South,180,4.0,7.0,16,0.00,,,0.00,meteohub,2013-06-02 20:08:00,
2013-06-02 14:14:00,82.4,31.6,30.59,SW,225,2.0,7.0,16,0.00,,,0.00,meteohub,2013-06-02 20:14:00,
2013-06-02 14:19:00,81.9,26.2,30.58,NE,45,3.0,6.0,13,0.00,,,0.00,meteohub,2013-06-02 20:19:00,
2013-06-02 14:24:00,81.9,28.0,30.58,West,270,3.0,8.0,14,0.00,,,0.00,meteohub,2013-06-02 20:24:00,
2013-06-02 14:29:00,81.5,25.9,30.58,North,0,2.0,8.0,13,0.00,,,0.00,meteohub,2013-06-02 20:29:00,
2013-06-02 14:34:00,81.0,25.5,30.58,SE,135,7.0,8.0,13,0.00,,,0.00,meteohub,2013-06-02 20:34:00,
2013-06-02 14:39:00,80.6,25.2,30.58,NW,315,4.0,6.0,13,0.00,,,0.00,meteohub,2013-06-02 20:39:00,
2013-06-02 14:44:00,80.4,26.8,30.58,NE,45,3.0,8.0,14,0.00,,,0.00,meteohub,2013-06-02 20:44:00,
2013-06-02 14:49:00,80.2,26.8,30.58,South,180,2.0,8.0,14,0.00,,,0.00,meteohub,2013-06-02 20:49:00,
2013-06-02 14:54:00,80.4,26.8,30.58,East,90,4.0,8.0,14,0.00,,,0.00,meteohub,2013-06-02 20:54:00,
2013-06-02 14:59:00,80.2,26.8,30.57,NE,45,4.0,6.0,14,0.00,,,0.00,meteohub,2013-06-02 20:59:00,
2013-06-02 15:04:00,80.4,26.8,30.57,NE,45,2.0,7.0,14,0.00,,,0.00,meteohub,2013-06-02 21:04:00,
2013-06-02 15:10:00,80.6,25.2,30.57,ENE,68,4.0,8.0,13,0.00,,,0.00,meteohub,2013-06-02 21:10:00,
2013-06-02 15:15:00,80.4,26.8,30.57,South,180,2.0,8.0,14,0.00,,,0.00,meteohub,2013-06-02 21:15:00,
2013-06-02 15:20:00,80.4,26.8,30.57,South,180,4.0,8.0,14,0.00,,,0.00,meteohub,2013-06-02 21:20:00,
2013-06-02 15:25:00,80.4,26.8,30.56,SW,225,2.0,8.0,14,0.00,,,0.00,meteohub,2013-06-02 21:25:00,
2013-06-02 15:30:00,80.6,25.2,30.56,South,180,3.0,8.0,13,0.00,,,0.00,meteohub,2013-06-02 21:30:00,
2013-06-02 15:35:00,81.0,25.5,30.56,South,180,2.0,6.0,13,0.00,,,0.00,meteohub,2013-06-02 21:35:00,
2013-06-02 15:40:00,81.5,25.9,30.56,SW,225,2.0,4.0,13,0.00,,,0.00,meteohub,2013-06-02 21:40:00,
2013-06-02 15:45:00,82.0,26.4,30.55,NE,45,4.0,4.0,13,0.00,,,0.00,meteohub,2013-06-02 21:45:00,
2013-06-02 15:50:00,82.6,31.8,30.55,South,180,2.0,4.0,16,0.00,,,0.00,meteohub,2013-06-02 21:50:00,
2013-06-02 15:55:00,82.9,32.2,30.55,SW,225,2.0,4.0,16,0.00,,,0.00,meteohub,2013-06-02 21:55:00,
2013-06-02 16:01:00,83.7,32.7,30.55,SE,135,2.0,4.0,16,0.00,,,0.00,meteohub,2013-06-02 22:01:00,
2013-06-02 16:06:00,83.7,32.7,30.54,SE,135,2.0,4.0,16,0.00,,,0.00,meteohub,2013-06-02 22:06:00,
2013-06-02 16:11:00,85.3,32.4,30.54,SE,135,2.0,4.0,15,0.00,,,0.00,meteohub,2013-06-02 22:11:00,
2013-06-02 16:16:00,85.8,32.9,30.54,West,270,2.0,7.0,15,0.00,,,0.00,meteohub,2013-06-02 22:16:00,
2013-06-02 16:21:00,86.0,31.3,30.54,SW,225,2.0,7.0,14,0.00,,,0.00,meteohub,2013-06-02 22:21:00,
2013-06-02 16:26:00,86.2,31.5,30.54,NW,315,5.0,5.0,14,0.00,,,0.00,meteohub,2013-06-02 22:26:00,
2013-06-02 16:31:00,86.0,31.3,30.53,NNW,338,2.0,5.0,14,0.00,,,0.00,meteohub,2013-06-02 22:31:00,
2013-06-02 16:36:00,85.3,32.4,30.53,North,0,5.0,5.0,15,0.00,,,0.00,meteohub,2013-06-02 22:36:00,
2013-06-02 16:41:00,84.7,32.0,30.53,West,270,2.0,8.0,15,0.00,,,0.00,meteohub,2013-06-02 22:41:00,
2013-06-02 16:46:00,85.1,32.2,30.53,West,270,1.0,8.0,15,0.00,,,0.00,meteohub,2013-06-02 22:46:00,
2013-06-02 16:51:00,85.6,32.7,30.52,SW,225,3.0,8.0,15,0.00,,,0.00,meteohub,2013-06-02 22:51:00,
2013-06-02 16:57:00,85.8,32.9,30.53,SW,225,3.0,4.0,15,0.00,,,0.00,meteohub,2013-06-02 22:57:00,
2013-06-02 17:02:00,85.5,32.5,30.53,South,180,2.0,4.0,15,0.00,,,0.00,meteohub,2013-06-02 23:02:00,
2013-06-02 17:07:00,84.9,32.2,30.53,WNW,293,3.0,7.0,15,0.00,,,0.00,meteohub,2013-06-02 23:07:00,
2013-06-02 17:12:00,84.0,33.1,30.52,East,90,5.0,7.0,16,0.00,,,0.00,meteohub,2013-06-02 23:12:00,
2013-06-02 17:17:00,82.6,31.8,30.52,South,180,2.0,7.0,16,0.00,,,0.00,meteohub,2013-06-02 23:17:00,
2013-06-02 17:22:00,81.9,26.2,30.52,SW,225,3.0,7.0,13,0.00,,,0.00,meteohub,2013-06-02 23:22:00,
2013-06-02 17:27:00,81.3,25.7,30.52,NE,45,4.0,7.0,13,0.00,,,0.00,meteohub,2013-06-02 23:27:00,
2013-06-02 17:32:00,81.1,25.7,30.52,NW,315,5.0,5.0,13,0.00,,,0.00,meteohub,2013-06-02 23:32:00,
2013-06-02 17:37:00,81.3,25.7,30.52,West,270,4.0,8.0,13,0.00,,,0.00,meteohub,2013-06-02 23:37:00,
2013-06-02 17:43:00,81.5,25.9,30.51,East,90,5.0,8.0,13,0.00,,,0.00,meteohub,2013-06-02 23:43:00,
2013-06-02 17:48:00,81.5,25.9,30.52,South,180,3.0,8.0,13,0.00,,,0.00,meteohub,2013-06-02 23:48:00,
2013-06-02 17:53:00,81.5,25.9,30.52,WNW,293,4.0,5.0,13,0.00,,,0.00,meteohub,2013-06-02 23:53:00,
2013-06-02 17:58:00,81.5,25.9,30.52,SE,135,3.0,5.0,13,0.00,,,0.00,meteohub,2013-06-02 23:58:00,
2013-06-02 18:03:00,81.5,25.9,30.52,SE,135,2.0,5.0,13,0.00,,,0.00,meteohub,2013-06-03 00:03:00,
2013-06-02 18:08:00,81.7,26.1,30.52,SW,225,5.0,5.0,13,0.00,,,0.00,meteohub,2013-06-03 00:08:00,
2013-06-02 18:13:00,81.5,25.9,30.52,SW,225,7.0,7.0,13,0.00,,,0.00,meteohub,2013-06-03 00:13:00,
2013-06-02 18:18:00,81.0,25.5,30.52,SE,135,2.0,7.0,13,0.00,,,0.00,meteohub,2013-06-03 00:18:00,
2013-06-02 18:23:00,80.2,26.8,30.52,SE,135,4.0,7.0,14,0.00,,,0.00,meteohub,2013-06-03 00:23:00,
2013-06-02 18:28:00,79.7,26.2,30.52,SE,135,7.0,7.0,14,0.00,,,0.00,meteohub,2013-06-03 00:28:00,
2013-06-02 18:34:00,79.0,25.7,30.53,North,0,4.0,8.0,14,0.00,,,0.00,meteohub,2013-06-03 00:34:00,
2013-06-02 18:39:00,78.6,28.8,30.53,South,180,2.0,8.0,16,0.00,,,0.00,meteohub,2013-06-03 00:39:00,
2013-06-02 18:44:00,78.3,28.4,30.53,South,180,3.0,10.0,16,0.00,,,0.00,meteohub,2013-06-03 00:44:00,
2013-06-02 18:49:00,78.1,28.2,30.53,South,180,2.0,10.0,16,0.00,,,0.00,meteohub,2013-06-03 00:49:00,
2013-06-02 18:54:00,77.5,27.9,30.53,East,90,2.0,10.0,16,0.00,,,0.00,meteohub,2013-06-03 00:54:00,
2013-06-02 18:59:00,77.4,27.7,30.53,East,90,2.0,5.0,16,0.00,,,0.00,meteohub,2013-06-03 00:59:00,
2013-06-02 19:04:00,77.2,27.5,30.53,SW,225,2.0,6.0,16,0.00,,,0.00,meteohub,2013-06-03 01:04:00,
2013-06-02 19:09:00,77.0,27.3,30.53,South,180,2.0,9.0,16,0.00,,,0.00,meteohub,2013-06-03 01:09:00,
2013-06-02 19:14:00,76.6,28.6,30.53,West,270,4.0,9.0,17,0.00,,,0.00,meteohub,2013-06-03 01:14:00,
2013-06-02 19:19:00,76.3,28.2,30.54,SW,225,2.0,9.0,17,0.00,,,0.00,meteohub,2013-06-03 01:19:00,
2013-06-02 19:24:00,76.3,28.2,30.53,South,180,4.0,4.0,17,0.00,,,0.00,meteohub,2013-06-03 01:24:00,
2013-06-02 19:29:00,75.9,28.0,30.53,SE,135,4.0,4.0,17,0.00,,,0.00,meteohub,2013-06-03 01:29:00,
2013-06-02 19:35:00,75.9,28.0,30.53,South,180,2.0,4.0,17,0.00,,,0.00,meteohub,2013-06-03 01:35:00,
2013-06-02 19:40:00,75.9,28.0,30.53,NE,45,6.0,8.0,17,0.00,,,0.00,meteohub,2013-06-03 01:40:00,
2013-06-02 19:45:00,75.9,28.0,30.54,North,0,4.0,8.0,17,0.00,,,0.00,meteohub,2013-06-03 01:45:00,
2013-06-02 19:50:00,75.9,28.0,30.54,NE,45,4.0,8.0,17,0.00,,,0.00,meteohub,2013-06-03 01:50:00,
2013-06-02 19:55:00,75.6,27.7,30.54,East,90,2.0,7.0,17,0.00,,,0.00,meteohub,2013-06-03 01:55:00,
2013-06-02 20:00:00,75.2,27.3,30.54,West,270,2.0,4.0,17,0.00,,,0.00,meteohub,2013-06-03 02:00:00,
2013-06-02 20:05:00,75.2,27.3,30.54,West,270,2.0,4.0,17,0.00,,,0.00,meteohub,2013-06-03 02:05:00,
2013-06-02 20:10:00,73.2,25.7,30.54,SW,225,0.0,2.0,17,0.00,,,0.00,meteohub,2013-06-03 02:10:00,
2013-06-02 20:15:00,72.3,26.4,30.54,SW,225,2.0,2.0,18,0.00,,,0.00,meteohub,2013-06-03 02:15:00,
2013-06-02 20:20:00,71.8,24.6,30.54,South,180,2.0,2.0,17,0.00,,,0.00,meteohub,2013-06-03 02:20:00,
2013-06-02 20:25:00,70.9,28.9,30.54,SW,225,2.0,4.0,21,0.00,,,0.00,meteohub,2013-06-03 02:25:00,
2013-06-02 20:31:00,69.6,30.2,30.54,West,270,2.0,4.0,23,0.00,,,0.00,meteohub,2013-06-03 02:31:00,
2013-06-02 20:36:00,68.9,29.7,30.54,SW,225,2.0,4.0,23,0.00,,,0.00,meteohub,2013-06-03 02:36:00,
2013-06-02 20:41:00,68.2,28.9,30.54,SW,225,1.0,2.0,23,0.00,,,0.00,meteohub,2013-06-03 02:41:00,
2013-06-02 20:46:00,67.3,32.2,30.54,SW,225,1.0,2.0,27,0.00,,,0.00,meteohub,2013-06-03 02:46:00,
2013-06-02 20:51:00,66.0,32.9,30.55,SW,225,2.0,2.0,29,0.00,,,0.00,meteohub,2013-06-03 02:51:00,
2013-06-02 20:56:00,64.8,32.5,30.55,SW,225,2.0,2.0,30,0.00,,,0.00,meteohub,2013-06-03 02:56:00,
2013-06-02 21:01:00,63.9,29.3,30.55,SW,225,2.0,2.0,27,0.00,,,0.00,meteohub,2013-06-03 03:01:00,
2013-06-02 21:06:00,64.0,32.0,30.55,SW,225,0.0,2.0,30,0.00,,,0.00,meteohub,2013-06-03 03:06:00,
2013-06-02 21:12:00,63.5,29.8,30.55,South,180,1.0,2.0,28,0.00,,,0.00,meteohub,2013-06-03 03:12:00,
2013-06-02 21:17:00,63.1,31.3,30.56,SW,225,2.0,2.0,30,0.00,,,0.00,meteohub,2013-06-03 03:17:00,
2013-06-02 21:22:00,63.0,30.2,30.56,SW,225,1.0,2.0,29,0.00,,,0.00,meteohub,2013-06-03 03:22:00,
2013-06-02 21:27:00,62.8,31.6,30.56,SW,225,2.0,2.0,31,0.00,,,0.00,meteohub,2013-06-03 03:27:00,
2013-06-02 21:32:00,62.4,30.6,30.56,West,270,1.0,2.0,30,0.00,,,0.00,meteohub,2013-06-03 03:32:00,
2013-06-02 21:37:00,61.7,31.5,30.56,SW,225,2.0,2.0,32,0.00,,,0.00,meteohub,2013-06-03 03:37:00,
2013-06-02 21:43:00,61.0,31.6,30.56,SW,225,2.0,2.0,33,0.00,,,0.00,meteohub,2013-06-03 03:43:00,
2013-06-02 21:48:00,60.4,32.0,30.56,West,270,0.0,2.0,34,0.00,,,0.00,meteohub,2013-06-03 03:48:00,
2013-06-02 21:53:00,59.9,31.5,30.56,SW,225,0.0,2.0,34,0.00,,,0.00,meteohub,2013-06-03 03:53:00,
2013-06-02 21:58:00,59.4,32.4,30.56,West,270,2.0,2.0,36,0.00,,,0.00,meteohub,2013-06-03 03:58:00,
2013-06-02 22:01:00,59.2,31.5,30.57,West,270,1.0,2.0,35,0.00,,,0.00,meteohub,2013-06-03 04:01:00,
2013-06-02 22:03:00,59.2,31.5,30.57,West,270,1.0,2.0,35,0.00,,,0.00,meteohub,2013-06-03 04:03:00,
2013-06-02 22:05:00,59.2,31.5,30.57,West,270,1.0,2.0,35,0.00,,,0.00,meteohub,2013-06-03 04:05:00,
2013-06-02 22:08:00,59.0,30.7,30.57,SE,135,2.0,2.0,34,0.00,,,0.00,meteohub,2013-06-03 04:08:00,
2013-06-02 22:10:00,59.2,31.5,30.58,South,180,1.0,2.0,35,0.00,,,0.00,meteohub,2013-06-03 04:10:00,
2013-06-02 22:15:00,59.0,30.0,30.57,North,0,4.0,4.0,33,0.00,,,0.00,meteohub,2013-06-03 04:15:00,
2013-06-02 22:20:00,59.4,30.2,30.56,SW,225,2.0,4.0,33,0.00,,,0.00,meteohub,2013-06-03 04:20:00,
2013-06-02 22:25:00,60.8,28.4,30.56,West,270,2.0,4.0,29,0.00,,,0.00,meteohub,2013-06-03 04:25:00,
2013-06-02 22:30:00,61.0,30.9,30.56,SW,225,0.0,4.0,32,0.00,,,0.00,meteohub,2013-06-03 04:30:00,
2013-06-02 22:35:00,60.6,30.6,30.56,West,270,2.0,3.0,32,0.00,,,0.00,meteohub,2013-06-03 04:35:00,
2013-06-02 22:40:00,60.4,31.3,30.56,SW,225,2.0,4.0,33,0.00,,,0.00,meteohub,2013-06-03 04:40:00,
2013-06-02 22:45:00,60.4,29.7,30.56,North,0,2.0,4.0,31,0.00,,,0.00,meteohub,2013-06-03 04:45:00,
2013-06-02 22:51:00,59.7,30.6,30.57,West,270,2.0,4.0,33,0.00,,,0.00,meteohub,2013-06-03 04:51:00,
2013-06-02 22:56:00,59.0,30.7,30.56,SW,225,1.0,4.0,34,0.00,,,0.00,meteohub,2013-06-03 04:56:00,
2013-06-02 23:01:00,58.1,30.6,30.56,West,270,1.0,2.0,35,0.00,,,0.00,meteohub,2013-06-03 05:01:00,
2013-06-02 23:06:00,57.4,30.6,30.56,SW,225,2.0,2.0,36,0.00,,,0.00,meteohub,2013-06-03 05:06:00,
2013-06-02 23:11:00,56.5,30.6,30.56,SW,225,1.0,2.0,37,0.00,,,0.00,meteohub,2013-06-03 05:11:00,
2013-06-02 23:16:00,55.6,31.6,30.56,SW,225,2.0,2.0,40,0.00,,,0.00,meteohub,2013-06-03 05:16:00,
2013-06-02 23:21:00,54.7,30.9,30.56,West,270,2.0,2.0,40,0.00,,,0.00,meteohub,2013-06-03 05:21:00,
2013-06-02 23:27:00,54.7,32.0,30.56,West,270,0.0,2.0,42,0.00,,,0.00,meteohub,2013-06-03 05:27:00,
2013-06-02 23:32:00,54.1,30.9,30.56,West,270,3.0,3.0,41,0.00,,,0.00,meteohub,2013-06-03 05:32:00,
2013-06-02 23:37:00,54.1,31.5,30.56,SW,225,2.0,3.0,42,0.00,,,0.00,meteohub,2013-06-03 05:37:00,
2013-06-02 23:42:00,53.8,30.6,30.56,SW,225,0.0,3.0,41,0.00,,,0.00,meteohub,2013-06-03 05:42:00,
2013-06-02 23:47:00,53.4,32.0,30.56,East,90,2.0,3.0,44,0.00,,,0.00,meteohub,2013-06-03 05:47:00,
2013-06-02 23:52:00,53.2,31.3,30.56,SW,225,2.0,3.0,43,0.00,,,0.00,meteohub,2013-06-03 05:52:00,
2013-06-02 23:57:00,53.2,31.8,30.56,West,270,2.0,2.0,44,0.00,,,0.00,meteohub,2013-06-03 05:57:00,